Wind_Speed
14 10 10 5 2 2 6 9 9 20 15 1 7 7 7 10 6 8 17 28 33 36 30 27 28 27 26 24 22 21 19 18 18 18 17 18 19 19 19 20 19 17 15 14 13 13 12 13 12
11 8 7 3 4 2 6 13 17 20 3 5 10 4 6 14 9 5 16 27 33 34 30 27 27 27 26 25 23 22 20 19 18 17 17 17 17 18 18 18 17 15 15 13 12 13 14 14 13
9 2 1 4 3 7 7 15 18 2 5 5 5 5 6 8 12 1 24 28 29 31 28 27 25 25 26 24 23 22 20 19 19 18 17 18 18 18 17 17 16 14 13 13 12 13 14 14 13
2 2 4 0 9 10 16 16 20 14 4 2 5 5 5 7 5 17 37 28 28 31 28 27 25 23 22 21 21 21 20 19 19 18 17 17 18 18 17 17 15 14 12 11 12 13 13 13 12
5 2 3 4 9 12 15 20 21 18 7 7 6 1 9 9 26 26 35 28 27 29 24 26 24 22 21 20 19 20 20 19 19 18 17 17 17 17 16 15 14 13 13 13 14 14 15 13 11
3 3 1 7 14 16 14 20 21 17 8 6 7 7 6 23 25 23 31 31 27 28 23 25 23 20 18 18 19 19 19 19 19 18 16 16 17 17 17 15 13 11 11 13 14 15 16 15 13
6 2 6 9 13 16 15 16 20 21 11 4 3 5 6 6 25 25 24 31 31 30 26 24 23 20 19 18 20 21 22 20 19 18 16 15 16 17 16 15 13 11 11 12 13 14 15 14 14
4 3 7 9 11 15 18 3 2 5 2 2 3 3 4 5 18 24 25 33 35 35 30 28 26 22 20 19 18 20 20 19 18 17 15 13 13 13 14 14 13 13 12 12 12 13 14 13 13
5 6 10 13 12 13 16 6 4 5 5 5 6 6 10 11 5 8 15 25 32 32 31 32 28 21 18 17 18 20 19 19 18 16 14 13 13 14 14 15 14 14 13 13 13 13 14 14 14
8 7 17 7 13 11 11 4 7 4 4 4 5 5 13 11 6 6 9 11 28 28 30 34 34 26 17 14 17 17 17 17 16 15 15 13 12 12 15 15 14 13 13 13 14 14 14 15 17
8 18 8 12 20 18 13 6 6 2 3 3 4 6 6 5 7 8 14 11 24 28 23 24 22 19 16 16 17 17 17 17 16 15 15 15 13 13 13 13 14 16 15 15 16 16 18 19 19
15 17 15 16 17 14 10 6 5 5 5 4 7 5 6 8 8 9 13 11 24 34 35 29 21 16 9 13 18 18 15 15 16 18 16 13 16 17 19 19 18 18 18 19 19 20 21 21 22
17 15 17 17 17 13 10 8 5 8 9 5 5 7 6 7 5 11 21 24 33 40 38 38 32 25 13 10 9 19 19 20 21 21 19 16 15 18 15 21 19 21 22 21 22 22 22 22 22
10 16 18 13 16 11 9 8 5 8 8 7 7 8 8 7 8 9 7 26 32 39 36 28 24 27 39 28 25 23 25 24 23 21 22 19 16 17 15 17 17 13 17 22 19 24 25 26 26
14 17 15 20 9 13 10 11 12 8 9 10 11 10 10 9 13 12 13 30 39 37 37 32 33 36 36 26 20 22 20 24 26 22 25 23 19 15 14 9 17 17 17 15 16 13 22 17 22
9 13 15 9 10 13 8 18 11 11 13 11 15 10 10 10 10 14 13 34 33 41 37 39 35 37 33 28 24 23 22 19 17 14 11 18 21 16 10 12 14 14 15 17 19 18 16 12 17
7 10 12 15 9 6 16 18 11 12 9 11 10 9 9 9 9 14 16 32 34 32 32 34 34 33 30 29 28 26 18 20 19 16 20 16 11 15 12 21 22 24 21 12 8 30 19 23 24
10 13 13 10 11 18 17 16 16 16 11 16 10 9 10 9 11 20 16 32 34 35 34 36 32 29 28 25 21 17 17 17 15 16 15 14 9 11 18 24 30 21 18 11 10 9 16 23 24
13 13 13 11 17 12 16 16 17 12 7 9 9 9 9 10 10 15 26 35 33 28 32 35 34 31 29 28 28 24 24 19 15 13 10 8 8 10 15 19 24 21 9 9 5 5 9 10 26
19 18 17 12 13 12 11 8 11 9 7 9 11 10 8 6 8 8 18 21 24 24 27 32 27 29 27 26 22 19 18 15 12 9 6 6 8 12 13 16 14 17 15 13 18 12 15 11 12
21 18 15 13 15 7 3 5 5 1 3 6 9 8 5 5 11 18 18 23 32 30 29 27 21 21 17 14 17 13 14 15 13 10 8 6 4 3 9 10 10 11 16 18 8 13 15 15 6
19 18 18 16 12 3 6 5 4 3 5 5 4 9 7 10 15 17 16 21 25 27 27 23 17 14 13 11 11 13 12 16 12 10 10 11 9 10 7 7 5 3 8 7 6 10 11 12 20
15 14 16 15 7 3 9 3 6 9 9 9 4 6 9 14 17 18 17 23 25 26 24 20 17 15 13 12 16 20 21 18 13 12 11 12 15 16 16 15 14 12 9 7 3 8 14 22 28
17 13 11 10 4 5 7 5 5 5 12 14 7 8 16 18 18 18 22 25 27 24 23 21 21 18 16 15 14 14 15 14 14 12 11 11 9 14 14 11 9 6 5 5 6 7 11 20 27
16 8 6 4 6 5 7 8 8 6 1 13 11 18 15 17 16 14 13 13 22 23 21 20 18 17 16 15 14 13 14 15 16 13 11 11 12 13 14 13 13 13 12 12 13 13 14 15 18
17 12 5 8 5 7 11 12 12 9 6 4 22 19 17 13 12 12 11 16 21 23 22 20 17 15 13 13 13 12 11 11 11 11 11 11 10 10 11 13 15 16 15 16 15 16 19 23 24
11 11 9 5 4 3 3 5 7 16 15 20 15 17 16 11 7 10 10 19 24 24 22 19 16 13 12 12 12 12 11 10 10 9 9 8 9 10 13 14 14 12 11 11 12 14 16 19 21
10 8 9 8 7 4 4 2 1 10 4 18 20 17 15 15 11 12 10 17 23 21 16 14 12 10 10 10 8 9 8 7 7 7 8 9 10 12 13 13 13 14 15 17 18 19 20 22 23
5 10 5 5 6 5 3 4 7 2 7 9 6 15 18 17 13 12 9 21 23 20 15 14 11 10 10 9 7 6 5 5 6 7 9 11 12 11 13 17 19 20 19 19 20 20 20 20 23
8 11 6 5 3 2 5 3 7 8 6 4 11 11 8 15 14 12 10 15 19 20 19 15 13 13 12 10 7 5 5 6 7 8 10 11 9 13 18 19 21 20 19 21 23 23 23 24 24
Wind_Direction
290 290 284 276 42 155 249 253 262 285 298 86 94 83 84 51 94 132 134 150 150 154 157 159 158 157 155 154 153 151 149 146 145 145 144 141 140 139 140 140 140 140 138 131 126 127 126 124 121
279 292 274 264 155 218 259 255 260 261 249 73 102 123 85 84 88 104 118 142 153 153 157 163 164 162 160 159 158 157 156 153 152 152 151 148 147 145 145 145 146 149 146 142 138 137 136 133 129
282 256 94 167 222 213 237 256 256 33 99 85 53 52 85 111 113 77 142 147 154 154 161 165 168 167 165 162 162 163 162 159 159 160 157 155 155 153 151 151 149 151 149 149 147 145 143 142 140
286 322 311 266 249 239 241 259 268 288 321 97 103 106 73 59 97 135 144 147 150 159 164 167 170 173 169 167 167 167 166 165 165 165 163 164 163 162 159 158 157 156 156 158 153 151 151 152 151
237 272 226 231 249 264 263 253 267 269 233 170 121 0 111 85 122 131 146 150 149 164 164 169 170 174 175 174 175 172 172 170 170 171 170 171 172 170 168 167 166 166 167 166 163 162 161 163 162
286 151 309 228 255 263 263 265 268 268 257 196 140 134 163 147 131 142 149 155 153 162 167 173 174 177 179 179 179 178 178 177 178 177 179 179 179 180 180 181 181 179 177 173 171 172 174 176 176
214 259 217 247 262 275 265 260 264 262 241 153 110 115 146 119 144 150 164 154 162 165 170 175 178 178 180 184 184 182 181 182 183 184 185 187 187 188 189 190 194 194 188 184 182 182 184 189 190
215 201 263 251 249 260 265 286 124 43 72 17 79 96 50 143 152 163 172 157 165 168 171 174 176 178 179 181 185 183 182 185 186 188 190 192 197 200 201 201 201 199 198 196 195 195 196 200 206
245 232 240 244 251 262 282 358 286 82 74 24 26 96 133 110 138 170 176 159 155 162 170 169 169 173 175 175 179 181 185 188 188 190 195 197 203 208 210 213 213 210 209 206 205 206 208 213 219
204 220 230 240 258 264 289 15 322 68 55 359 6 332 112 127 184 242 231 197 157 158 156 167 166 167 165 163 174 181 188 192 193 196 198 206 213 221 224 223 223 226 223 223 223 222 223 226 228
248 234 249 233 246 261 281 331 357 58 170 195 239 262 270 158 204 256 271 250 163 144 133 137 141 147 157 171 179 186 197 200 204 205 208 209 214 223 234 231 227 231 235 234 229 230 233 237 240
243 243 238 253 268 279 281 291 327 305 248 227 223 236 258 254 213 218 269 95 100 115 116 122 126 143 128 194 187 192 203 212 211 205 204 204 211 212 232 227 233 239 241 245 245 243 241 240 241
231 241 237 235 252 259 263 250 206 267 280 292 285 287 290 288 247 249 231 122 114 117 125 125 160 151 133 148 216 203 203 210 214 210 207 203 203 212 238 230 230 241 246 251 244 244 246 248 247
240 236 245 241 235 255 265 243 213 225 244 250 256 245 257 247 261 260 215 127 121 130 142 146 146 165 179 176 192 215 214 213 211 208 209 210 205 207 224 221 227 236 256 248 256 250 250 250 250
241 256 256 238 234 251 252 278 236 221 231 230 230 227 224 232 239 235 221 136 139 141 146 158 170 177 179 180 186 194 192 199 216 224 216 213 212 210 226 230 233 253 267 264 263 273 254 262 256
248 254 254 256 224 236 209 259 255 224 216 230 215 226 211 231 239 224 177 146 156 153 157 158 165 187 180 192 182 204 177 184 180 188 178 210 221 228 233 253 261 263 271 285 312 310 272 263 255
261 241 248 249 244 233 209 239 247 246 227 205 211 190 203 222 235 219 176 150 158 155 165 159 175 189 189 195 192 212 216 207 208 222 221 203 211 204 246 237 256 250 254 271 284 347 336 332 329
219 229 246 253 232 239 251 233 232 241 247 200 188 192 209 199 210 224 184 160 159 162 161 158 163 173 177 187 198 212 201 203 200 228 246 220 259 263 242 232 233 242 254 262 253 330 327 8 353
244 237 230 224 240 228 235 238 205 231 233 167 190 206 212 193 204 166 154 161 167 162 156 158 164 170 180 195 194 198 194 187 194 221 221 233 249 259 232 236 239 243 218 258 139 107 21 320 348
245 245 255 270 247 211 249 237 186 203 200 193 186 201 217 199 167 146 118 118 127 124 143 167 172 171 184 187 194 192 188 190 203 192 185 234 250 254 263 253 240 229 244 207 214 247 264 279 322
232 237 246 247 274 234 223 249 197 235 0 347 173 177 141 152 131 110 95 91 93 94 102 110 117 137 142 168 184 162 141 147 131 119 124 88 151 252 271 278 261 236 229 225 226 274 260 274 235
230 222 239 252 261 217 168 243 267 232 269 285 263 134 122 93 92 95 94 87 89 92 95 101 111 107 105 119 129 144 135 116 95 83 72 67 56 67 71 82 83 200 270 236 236 242 234 226 247
232 232 218 240 247 216 266 91 269 218 230 245 190 174 112 117 106 105 102 96 93 92 89 89 90 93 99 112 111 107 98 97 98 72 72 72 65 76 75 78 78 72 56 39 352 274 260 236 245
221 235 237 222 216 229 225 152 262 222 221 214 195 147 119 107 104 103 101 106 106 100 97 98 94 88 88 95 98 94 91 89 80 66 62 44 39 31 20 17 28 40 43 12 357 327 300 267 256
203 204 225 224 217 209 195 243 213 205 86 205 186 127 115 107 104 105 109 109 115 115 113 103 101 97 91 87 82 77 69 72 72 64 48 30 18 24 15 356 350 346 337 323 310 302 299 292 285
206 194 151 195 176 219 188 231 235 202 74 108 123 115 107 106 117 123 121 117 117 121 118 111 102 98 93 87 79 74 61 54 44 33 23 31 26 12 357 354 347 340 332 327 322 306 297 295 297
210 196 174 122 56 77 300 298 231 165 122 113 117 117 115 117 112 111 107 109 103 98 97 106 103 94 88 83 80 65 48 45 31 23 24 15 9 359 344 346 349 344 343 338 330 319 310 303 303
179 169 185 205 156 164 270 291 43 1 38 151 146 140 139 118 122 96 94 105 107 102 98 96 98 99 92 84 66 57 60 47 36 23 16 4 356 352 358 356 350 339 328 321 316 310 308 307 305
154 181 167 123 139 150 164 234 117 354 25 28 77 134 128 123 122 111 107 119 130 124 116 97 78 85 83 75 75 61 63 57 31 21 7 350 342 345 342 335 332 325 321 320 310 303 302 297 297
186 197 145 146 187 135 141 277 135 125 47 30 46 38 90 124 123 121 137 137 122 119 100 84 63 51 46 40 31 46 44 23 11 1 341 331 327 330 331 330 330 321 315 317 309 302 297 289 284
Height
776 777 779 780 806 799 805 781 750 744 736 714 708 721 733 727 740 776 742 741 740 746 752 757 757 760 763 767 771 774 778 781 783 785 788 789 790 791 794 796 798 800 802 803 805 807 809 810 812
774 776 778 781 809 819 803 762 758 733 722 711 706 714 724 743 722 731 734 740 742 746 751 756 758 760 763 766 770 774 778 781 784 786 788 790 792 793 794 796 799 800 801 803 805 806 808 809 812
773 777 785 794 803 808 793 755 738 729 715 714 719 709 721 734 732 733 733 738 743 747 751 755 760 763 765 768 771 775 778 781 784 787 789 790 792 794 795 797 798 801 802 803 804 806 808 810 811
774 775 778 796 800 780 765 747 729 732 723 714 715 728 721 719 720 724 728 739 745 747 752 756 761 766 768 770 773 777 780 783 785 787 790 792 792 794 797 797 799 801 803 805 805 807 809 810 811
775 778 799 799 792 769 752 737 729 735 729 722 718 730 732 724 725 727 732 737 743 749 753 759 763 767 770 773 776 779 781 784 786 788 790 792 794 796 799 801 801 802 803 804 805 806 808 810 812
783 776 804 809 788 763 747 729 724 727 723 719 722 725 730 720 724 729 734 738 741 748 754 759 764 768 771 773 776 779 783 784 787 789 791 793 795 798 799 802 804 804 805 805 805 806 807 809 811
782 789 797 791 782 767 747 724 727 716 718 720 711 729 724 723 724 728 732 736 741 747 754 759 763 766 769 772 773 776 779 782 785 788 791 794 796 798 800 802 805 807 807 806 807 807 809 810 811
769 781 786 779 778 770 732 725 715 718 719 704 706 731 735 723 725 728 731 734 740 744 749 755 761 765 768 771 775 779 782 785 787 789 792 795 799 802 802 803 804 805 806 807 808 809 810 811 813
757 784 785 776 771 756 729 737 713 707 715 714 713 716 720 723 725 728 729 736 740 743 745 748 758 766 769 772 775 779 782 784 786 788 793 797 799 800 801 803 805 805 805 806 808 810 811 812 813
763 777 764 753 748 748 733 732 727 723 723 723 721 715 719 722 725 727 728 731 739 743 746 748 752 764 771 776 779 783 786 788 789 791 792 796 799 801 802 802 804 807 806 807 809 810 811 812 811
754 756 753 745 736 731 735 731 723 729 736 727 730 724 719 723 727 728 728 730 732 740 752 758 764 774 780 776 779 782 786 788 791 791 792 792 797 801 802 803 803 804 807 807 807 808 809 811 811
759 744 743 738 731 731 737 726 730 728 730 718 719 719 719 721 724 727 728 733 738 742 751 751 766 775 776 781 780 781 787 792 794 790 788 790 794 798 800 800 801 802 802 804 806 806 805 805 805
746 742 733 729 727 727 725 729 728 729 719 714 716 717 721 721 722 725 727 733 737 741 752 746 764 761 767 776 782 781 782 788 789 791 787 785 789 794 800 801 800 801 802 802 803 804 804 803 804
732 732 728 725 725 724 730 726 722 723 716 717 718 719 719 719 721 724 729 734 737 742 747 756 765 758 760 759 768 775 780 786 787 787 785 784 786 791 797 798 800 800 802 802 802 802 800 800 802
725 736 726 721 722 722 721 734 726 715 712 717 717 716 717 717 719 722 726 726 732 740 744 745 753 756 758 754 764 775 776 784 783 784 782 783 785 790 797 797 797 799 802 803 802 800 799 800 800
733 732 745 725 717 715 723 739 720 709 712 716 713 713 712 714 715 717 721 721 729 734 739 750 751 760 752 759 762 773 774 777 778 778 779 781 787 793 795 796 796 797 795 795 802 802 800 793 795
737 750 743 731 712 716 720 728 716 703 707 712 710 711 710 712 712 711 716 721 726 729 737 741 749 756 755 758 761 766 772 771 774 773 775 777 784 785 789 787 792 795 791 794 801 799 796 792 795
743 739 733 733 718 712 719 720 710 699 702 701 708 708 707 709 710 707 713 719 724 725 732 737 743 750 755 760 764 767 769 771 771 773 779 777 783 783 783 782 788 788 785 784 786 793 801 800 803
725 727 728 717 705 713 713 712 705 698 701 701 704 705 706 706 702 705 709 716 721 727 733 738 745 751 757 763 764 767 768 771 774 774 776 776 779 781 783 784 785 786 788 785 786 789 794 797 797
721 724 724 712 699 705 711 706 695 695 699 698 700 701 701 701 703 705 710 716 721 728 734 741 749 753 755 758 761 765 766 771 773 775 776 776 778 781 782 783 782 787 787 784 788 786 789 789 787
715 720 718 720 701 693 699 710 701 691 690 692 691 693 695 700 706 710 716 722 722 730 735 740 748 752 754 757 759 762 765 770 773 775 775 778 778 776 778 779 781 782 784 780 781 783 784 783 782
716 700 702 705 712 733 697 750 711 700 700 697 698 695 696 705 712 718 721 725 729 736 739 743 747 751 753 755 758 761 763 767 771 772 774 775 776 776 777 778 778 778 778 777 780 782 781 781 781
700 690 696 700 713 708 713 741 725 702 707 703 698 699 697 704 712 721 726 730 736 738 742 745 748 752 756 758 761 763 767 769 771 772 773 776 777 777 779 779 779 778 778 780 780 779 778 777 780
679 691 696 699 712 740 723 733 736 714 706 696 693 698 698 706 713 719 729 732 738 742 746 751 752 756 758 759 761 763 767 770 771 772 774 775 776 777 777 777 777 778 779 779 779 778 778 777 775
680 704 732 734 735 743 715 725 722 701 692 687 691 699 706 707 714 721 728 734 739 743 749 752 757 761 762 762 763 764 765 766 768 771 775 776 776 777 778 777 776 776 776 775 773 773 774 774 773
679 692 727 746 745 733 705 719 708 691 688 677 690 701 707 715 720 725 731 736 742 746 749 754 759 763 764 765 765 765 764 766 768 771 773 775 776 777 777 776 774 774 773 772 772 770 768 767 765
676 686 683 711 722 742 725 701 685 683 689 689 702 704 711 720 727 729 734 739 744 747 752 756 761 764 765 765 765 765 766 768 769 771 773 775 775 776 775 773 772 772 771 771 769 768 765 764 763
661 664 699 701 739 748 729 727 722 720 706 687 696 706 711 719 734 734 739 744 748 751 756 759 762 765 766 766 766 767 769 770 770 771 772 772 773 773 771 770 769 769 768 767 766 765 763 761 760
665 671 679 699 719 746 745 735 716 721 719 719 705 703 710 719 731 735 742 748 751 754 759 762 764 765 767 768 769 770 771 771 772 771 770 770 769 768 768 767 767 766 764 762 761 760 758 756 755
648 663 677 715 712 711 725 733 712 715 716 725 721 722 719 722 728 736 743 748 755 758 761 764 766 767 767 768 769 770 770 770 769 769 770 768 767 765 764 763 762 761 759 758 757 754 753 752 750